Wind_Speed
2 7 11 10 5 6 6 2 3 5 6 4 5 9 7 14 16 17 18 18 19 20 25 25 26 24 22 21 22 22 21 23 20 17 14 13 13 10 9 8 8 6 6 5
5 13 8 7 7 7 5 3 5 6 3 4 4 9 8 17 23 22 21 20 21 19 17 21 24 23 25 25 25 24 25 25 27 19 15 11 12 10 9 12 9 8 6 5
10 5 9 7 8 8 4 5 1 6 9 2 5 7 3 6 13 17 19 19 21 21 21 19 23 26 25 25 28 30 34 29 28 25 16 13 11 11 10 11 10 7 4 3
4 3 9 9 9 7 10 4 4 4 4 4 5 5 8 2 9 13 19 23 23 22 19 19 21 23 27 30 25 27 28 28 29 28 20 20 16 13 11 10 11 8 4 5
5 7 8 9 9 8 5 3 1 1 4 4 1 4 9 4 13 8 15 20 22 23 22 21 21 27 29 24 26 27 26 26 27 28 27 23 18 12 7 10 9 7 8 7
1 1 4 7 4 9 9 4 6 3 3 4 0 5 12 5 8 7 2 9 17 20 22 20 25 23 23 22 22 22 24 28 26 28 28 29 22 16 10 10 10 11 10 11
3 4 2 2 5 3 5 6 5 6 5 6 2 5 11 12 8 13 13 8 11 16 19 19 19 23 22 24 24 23 24 27 27 28 28 28 26 19 15 12 11 10 10 13
9 7 9 8 7 6 9 8 4 6 5 6 2 5 8 2 11 8 7 8 7 14 15 18 19 23 24 25 25 26 25 25 26 24 26 25 23 16 15 14 12 10 11 13
6 4 2 4 3 2 6 5 3 4 1 3 2 6 12 4 7 6 3 2 4 8 10 13 15 21 22 24 27 29 25 24 28 23 22 22 23 22 17 14 14 12 11 13
5 3 2 4 4 8 3 10 4 1 2 4 3 5 5 6 9 7 3 3 2 3 6 8 10 17 21 25 26 25 24 27 30 21 19 18 20 20 21 19 17 14 13 17
5 1 3 2 4 9 5 4 5 3 1 3 3 3 1 9 11 12 7 3 2 3 5 6 8 16 21 20 21 22 21 22 20 18 18 15 16 19 23 22 17 15 16 17
3 1 2 4 3 1 2 3 7 4 4 1 2 6 4 6 9 7 10 8 3 5 6 5 8 10 15 19 20 21 21 22 22 21 24 25 17 17 18 19 18 18 21 19
10 4 2 5 5 3 2 3 3 5 3 5 3 1 3 7 8 13 11 8 5 2 2 2 5 5 9 15 17 18 22 23 24 26 28 31 25 27 23 20 23 21 20 20
7 3 1 2 2 1 3 4 5 4 4 6 5 5 8 12 12 13 12 10 7 5 4 4 1 3 8 8 11 15 21 23 27 29 31 34 35 31 28 25 25 25 22 22
1 3 2 3 1 3 1 5 9 7 2 4 3 2 7 9 7 9 8 10 11 12 10 8 6 1 5 9 12 17 23 30 34 37 39 32 33 30 31 28 25 24 24 22
1 3 1 4 5 4 5 5 6 4 5 3 3 2 2 3 3 10 10 10 11 11 10 8 7 8 5 8 14 18 22 26 34 34 34 28 30 33 34 32 30 26 23 22
2 6 4 4 2 1 3 0 1 1 2 2 3 2 2 4 4 6 7 9 9 9 8 7 6 6 5 6 15 19 25 30 37 29 23 26 29 25 29 31 29 25 28 25
5 4 1 3 4 6 2 3 5 4 2 5 3 3 1 2 3 3 6 10 11 10 7 9 7 7 7 8 10 18 22 27 31 31 22 17 25 30 33 31 28 25 25 24
3 4 3 3 5 2 3 4 5 6 4 10 7 5 2 2 2 3 7 9 9 11 9 5 9 10 6 6 16 18 20 24 25 26 24 24 26 31 33 35 32 29 26 22
4 5 1 3 4 6 3 4 4 2 5 12 9 7 2 1 4 2 8 11 11 14 15 15 13 6 6 2 8 17 20 22 27 26 24 22 24 30 32 29 31 31 29 25
2 2 5 4 5 3 4 7 6 6 2 9 12 9 6 2 2 4 9 9 10 13 18 17 14 7 6 1 4 7 14 20 22 20 23 24 20 19 15 17 23 29 25 22
2 3 3 2 4 7 6 7 7 2 3 4 8 8 6 3 3 4 6 8 9 10 15 15 16 17 9 2 3 7 11 11 17 19 17 21 22 23 23 15 10 11 20 22
3 2 1 5 1 1 3 2 1 1 3 4 6 5 4 2 1 5 6 7 8 11 12 11 10 12 15 10 5 9 9 11 17 24 27 28 32 31 35 14 27 16 12 15
2 2 2 2 1 3 3 3 2 2 2 7 7 6 5 0 3 7 8 6 8 11 9 10 10 11 13 13 13 11 7 12 17 25 31 34 35 37 30 30 42 30 24 13
1 2 1 4 3 6 3 3 2 4 6 6 6 6 5 4 4 6 8 8 8 11 10 10 11 10 12 12 13 11 10 14 15 16 23 25 25 28 23 25 35 35 27 33
4 3 2 3 1 2 3 1 1 3 6 6 6 6 6 6 7 6 8 9 10 11 13 13 14 13 10 10 9 7 9 15 14 12 18 21 23 22 22 29 23 18 25 36
Wind_Direction
133 198 200 192 169 144 120 130 282 265 294 268 251 263 211 195 210 204 199 200 204 212 211 210 214 218 217 215 213 213 208 211 210 207 208 220 224 218 230 241 252 230 214 246
168 216 194 159 144 147 152 183 261 290 136 283 305 272 263 193 209 214 207 203 209 212 212 213 215 214 215 215 215 213 214 214 216 213 210 211 210 222 226 244 241 226 216 251
206 193 155 157 162 177 182 242 177 300 330 113 288 279 232 202 217 223 225 222 214 210 207 207 210 212 215 215 213 215 220 216 217 215 211 219 224 232 224 223 219 214 232 232
221 134 173 169 186 202 228 207 229 271 314 302 350 308 300 221 228 216 215 219 219 216 213 213 208 209 211 219 215 216 217 216 218 219 210 210 218 226 225 211 215 211 210 205
182 181 169 200 202 191 237 124 53 299 261 282 165 262 284 314 302 286 222 221 219 218 214 210 207 210 212 213 211 213 213 215 214 218 215 212 214 221 211 193 189 183 178 180
194 212 207 202 176 194 141 100 61 72 192 231 6 254 289 281 278 298 12 242 219 215 216 216 216 213 212 211 210 206 205 214 213 213 214 216 208 206 200 192 182 175 175 183
186 219 219 193 146 117 179 160 203 216 220 269 84 223 265 278 272 291 315 298 217 208 210 212 208 208 208 203 205 204 204 204 213 212 212 214 218 214 217 209 195 197 183 176
192 204 192 184 214 181 175 218 219 241 256 295 144 237 259 265 307 304 296 275 214 201 206 209 207 205 205 204 200 202 201 203 211 212 214 216 220 217 222 224 220 214 206 188
165 233 141 216 154 198 152 189 48 118 101 260 265 265 279 298 291 281 329 244 200 198 206 213 208 209 210 205 201 205 198 199 214 208 213 215 223 217 219 224 231 231 205 184
172 165 89 116 117 50 240 140 157 156 228 249 220 276 262 331 344 341 308 319 19 253 235 229 210 212 211 209 212 206 201 197 211 200 205 208 219 218 217 223 228 219 199 178
152 288 112 163 204 173 144 170 69 117 299 263 258 256 260 295 322 335 359 7 343 284 255 238 219 215 216 213 207 208 196 194 195 188 197 195 204 202 209 219 211 200 182 180
169 104 229 102 122 2 66 156 189 231 191 224 320 278 70 351 323 346 18 33 8 300 280 223 210 215 210 209 202 202 189 192 191 179 188 201 191 211 207 208 203 185 179 179
174 212 179 137 144 127 118 131 127 115 137 182 216 230 89 14 20 37 33 25 40 356 327 300 239 228 209 210 205 185 183 190 186 184 193 207 214 195 202 206 190 183 182 183
136 111 319 94 84 62 175 168 182 232 195 158 232 299 355 13 10 28 43 57 57 47 16 17 324 218 221 218 188 181 177 182 174 181 196 205 204 209 202 191 187 185 186 188
244 116 130 89 274 139 21 170 181 209 174 225 97 221 348 3 14 32 58 68 68 51 43 25 21 2 222 192 177 183 180 176 177 185 193 202 202 206 190 182 178 182 185 183
74 134 144 66 69 123 99 97 168 166 151 109 134 215 14 10 89 43 38 57 62 64 57 45 25 357 310 197 185 185 185 183 189 197 196 190 192 184 181 178 179 186 183 172
109 142 164 150 19 62 148 145 295 113 185 152 217 95 94 98 38 0 5 15 39 41 41 34 33 49 44 176 175 179 182 185 197 203 195 186 182 185 171 179 181 179 177 169
128 105 45 136 147 216 65 293 237 250 190 206 213 183 151 335 328 1 10 356 1 0 348 339 338 15 74 117 162 173 182 190 200 218 207 188 185 177 172 176 179 178 172 172
31 130 107 179 198 328 210 190 186 199 172 191 183 169 130 328 229 253 350 0 348 341 333 312 308 337 2 126 151 167 184 193 206 218 214 204 196 180 174 175 175 175 172 175
76 69 186 150 192 212 237 165 158 179 230 174 177 183 164 132 238 348 335 337 327 332 332 326 336 340 10 23 162 169 179 198 197 205 220 214 204 184 183 179 172 174 176 176
95 53 217 185 228 240 238 150 151 193 244 164 174 162 165 204 296 310 309 308 318 322 328 335 333 329 347 21 177 204 194 199 215 205 202 200 201 193 181 167 168 170 172 170
260 213 190 147 208 240 152 136 206 45 51 136 154 155 160 202 278 297 309 309 324 329 335 342 337 331 350 337 246 222 216 219 208 188 183 165 157 141 129 91 112 156 161 162
222 287 310 228 295 39 230 321 32 162 148 160 145 139 140 152 318 324 311 321 324 330 327 335 337 325 324 320 275 258 256 197 184 164 155 152 145 153 163 157 254 232 170 169
174 172 246 282 140 254 222 235 225 174 163 154 139 144 164 51 309 290 295 318 322 321 317 317 320 317 310 315 313 291 261 207 191 172 160 166 159 161 173 177 180 179 194 191
3 184 233 265 271 275 244 242 250 164 171 176 183 194 204 244 286 276 284 299 315 302 289 284 287 288 296 304 299 295 272 238 209 177 163 162 167 167 160 165 173 184 208 211
194 179 261 288 282 266 259 327 318 217 215 212 221 216 219 238 269 287 286 285 286 287 280 278 284 288 284 273 287 288 253 229 198 168 156 157 163 166 162 167 178 179 181 185
Height
763 769 775 768 766 771 776 782 789 779 767 772 773 770 769 772 775 774 773 775 775 775 773 781 788 793 799 802 805 808 812 814 818 821 825 828 829 830 832 833 833 834 835 835
770 774 762 761 767 773 777 784 785 771 770 773 773 769 760 764 764 765 765 768 768 771 773 777 782 789 793 796 800 804 808 811 814 819 822 825 827 828 830 831 832 834 834 835
770 764 763 765 773 777 779 780 785 784 770 772 774 771 768 760 761 762 761 758 760 763 768 771 776 780 787 791 793 796 800 806 811 815 820 824 826 827 827 829 831 831 833 834
767 762 765 769 773 770 781 770 775 781 786 795 775 797 764 762 763 760 756 752 753 757 760 765 770 775 780 782 788 793 797 801 807 812 817 820 823 825 826 827 828 829 831 832
769 768 769 771 767 765 771 766 777 782 788 791 788 792 765 763 751 739 747 746 747 749 753 757 762 767 771 780 783 787 793 798 803 807 812 815 820 823 824 824 825 826 828 829
762 757 758 756 759 759 766 772 782 792 791 804 789 790 769 761 750 740 744 743 741 744 747 752 758 765 769 775 780 785 789 793 799 803 807 811 815 819 822 822 822 824 825 826
769 764 755 753 764 767 767 777 801 807 804 804 796 797 768 743 744 742 742 738 738 739 743 747 753 758 764 769 774 780 785 789 794 798 802 808 813 817 819 819 819 822 824 824
779 786 760 750 752 761 769 769 789 821 813 797 803 798 764 744 739 737 736 733 734 738 740 743 747 753 758 763 769 773 778 786 790 795 801 807 813 817 819 818 820 822 823 824
774 773 752 751 749 751 778 779 772 795 818 807 788 774 748 740 737 736 735 735 736 738 739 741 745 749 754 758 760 766 773 781 785 793 799 805 809 813 817 819 819 821 823 825
759 771 754 756 750 759 759 768 783 791 815 817 791 793 771 750 742 737 740 739 739 739 740 741 744 746 748 751 757 763 769 775 780 789 795 801 804 810 812 814 816 819 821 819
753 760 765 756 757 759 768 770 784 780 793 798 802 780 754 755 748 746 742 740 739 738 737 739 741 742 744 749 754 761 769 773 780 786 789 795 798 801 804 808 812 816 819 820
750 755 765 759 755 752 753 757 757 777 798 800 796 776 750 751 745 743 741 741 739 737 734 734 737 739 741 745 750 757 766 769 775 781 782 784 791 799 803 807 809 812 815 818
746 760 768 764 759 756 759 766 766 767 772 794 789 772 750 744 742 746 746 742 738 735 733 734 736 739 740 744 749 756 762 764 770 775 777 778 777 786 794 802 805 808 812 816
734 756 756 768 765 762 764 766 767 757 771 779 773 760 749 750 750 748 747 744 740 736 732 731 733 735 739 743 749 754 758 762 767 770 771 772 776 780 787 796 803 805 808 811
734 755 759 762 759 758 760 760 766 764 762 764 765 770 758 759 757 753 747 745 744 740 736 734 732 733 735 739 744 749 755 757 759 760 762 764 771 778 782 789 799 803 806 807
743 763 758 765 758 754 764 761 761 762 767 764 766 765 756 756 751 750 749 748 746 745 742 740 738 736 733 734 739 743 749 752 753 749 753 763 770 774 776 783 790 798 802 803
744 752 759 771 769 763 770 761 761 762 761 757 764 755 755 755 754 752 749 745 745 744 744 742 738 735 735 734 734 739 742 746 746 751 755 761 763 769 769 778 786 793 795 800
750 756 764 768 771 794 761 755 756 757 758 758 758 755 754 754 751 749 748 746 741 741 741 738 736 734 731 730 734 736 739 743 746 749 757 758 760 759 764 773 782 789 793 798
742 751 771 771 773 776 760 759 757 755 755 751 751 753 753 753 751 750 747 745 743 740 739 740 738 734 734 732 730 734 738 741 745 746 752 754 758 759 762 764 773 782 790 797
747 746 749 776 779 787 749 745 742 743 763 744 747 750 753 753 760 755 747 744 742 739 736 733 733 734 733 734 734 733 732 737 735 739 746 752 758 754 759 766 770 779 785 792
758 760 761 766 767 759 743 744 742 773 760 741 744 749 753 755 752 750 748 744 742 740 735 731 730 730 730 729 730 732 734 731 732 733 740 748 756 761 768 772 776 778 787 793
762 762 763 772 774 777 742 749 755 746 745 743 745 748 751 751 750 748 746 743 741 738 735 732 728 725 727 729 729 728 728 727 733 731 741 743 749 756 764 772 775 789 787 792
766 759 760 762 753 748 744 743 743 741 742 745 744 745 747 748 747 745 744 742 739 737 734 730 729 726 722 723 725 724 720 723 727 729 731 743 746 751 751 747 767 787 789 794
758 759 758 759 749 746 743 742 743 743 743 743 742 744 746 746 745 743 740 739 737 734 732 729 726 722 719 717 716 716 717 717 716 719 723 730 739 745 742 742 752 759 773 797
754 757 757 752 744 742 741 741 741 743 743 743 742 742 743 743 742 741 738 736 735 733 730 728 724 721 718 717 717 717 716 714 715 720 724 729 737 742 746 750 747 760 767 767
748 748 752 752 742 744 740 739 739 739 738 738 739 740 740 741 739 738 735 734 732 730 727 724 722 720 719 719 720 720 718 718 720 724 727 731 735 738 740 747 753 759 764 766